Location: Brachbach
(49.1847°N, 9.7240°E)
Time: 12:54:57
(UTC+00:00)

CZ-2C R/B - Pass Details

Date: 13 August 2024
Orbit: 782 x 869 km, 98.3° (Epoch: 15 September)

Event Time Altitude Azimuth Distance (km) Brightness Sun altitude
Exits shadow 01:33:31 39° 202° (SSW) 1,249 3.1 -20.3°
Maximum altitude 01:35:20 58° 259° (W) 984 2.8 -20.1°
Drops below altitude 10° 01:40:42 10° 339° (NNW) 2,448 5.5 -19.7°
Sets 01:43:05 0° 343° (NNW) 3,372 6.4 -19.4°
